sat.trackr.live / text

‹ back to catalog

STARLINK-36146

NORAD 67426 · 2026-005Y

PAYLOAD ACTIVE UNKNOWN

§ Identity

Operator
Country
US
Launch date
2026-01-12
Launch site
AFETR
Launch vehicle
Mass (kg)
RCS (m²)

Purposes: comms

External: N2YO · Heavens-Above · Gunter

§ Orbital elements

Epoch: 2026-09-19T07:26:03.645024Z

Period
94.27 min
Inclination
43.0003°
Eccentricity
0.0001377
Mean motion
15.27584503 rev/d
Perigee alt
482.1 km
Apogee alt
484.0 km
Semi-major
6,861.2 km
B*
2.8255e-4
RAAN
224.9087°
Arg perigee
268.9122°
Mean anomaly
91.1572°
Rev number
3,829

§ Raw data

STARLINK-361461 67426U 26005Y   26262.30976441  .00007522  00000+0  28255-3 0  99902 67426  43.0003 224.9087 0001377 268.9122  91.1572 15.27584503 38294

JSON: /api/v1/satellites/67426 · /tle

For live sub-satellite position, see the globe view (requires WebGL).

§ Visibility from observer

Set your observer location to see the next 7 days of passes ≥ 10°. The values pass through the URL so the page stays shareable.

No JS? Fill the form by hand. The geolocation button needs JavaScript.